Location: Mactaquac Provincial Park
(45.9573°N, 66.8897°W)
Time: 09:20:54
(UTC-03:00)

CENTAUR R/B - Visible Passes

Search period start: 02 August 2015 00:00
Search period end: 12 August 2015 00:00
Orbit: 874 x 1315 km, 63.5° (Epoch: 31 July)

Date Brightness Start Highest point End Pass type
(mag) Time Alt. Az. Time Alt. Az. Time Alt. Az.
02 Aug 2.4 01:43:17 64° S 01:44:07 72° SE 01:51:01 10° NE visible
02 Aug 3.9 03:30:27 14° W 03:35:28 34° NNW 03:41:52 10° NNE visible
02 Aug 4.9 05:23:36 10° NW 05:28:30 20° N 05:33:41 10° NE visible
03 Aug 2.9 00:56:19 44° ESE 00:56:19 44° ESE 01:02:35 10° NE visible
03 Aug 3.4 02:43:29 26° W 02:46:52 47° NW 02:53:40 10° NNE visible
03 Aug 4.8 04:34:24 10° WNW 04:39:29 21° NNW 04:44:54 10° NE visible
04 Aug 3.7 00:09:18 26° E 00:09:18 26° E 00:13:51 10° ENE visible
04 Aug 2.8 01:56:27 45° WSW 01:58:28 68° NW 02:05:29 10° NE visible
04 Aug 4.5 03:45:09 10° WNW 03:50:34 25° NNW 03:56:23 10° NNE visible
04 Aug 4.3 23:22:14 14° E 23:22:14 14° E 23:24:22 10° ENE visible
05 Aug 2.4 01:09:23 67° S 01:10:16 80° SE 01:17:14 10° NE visible
05 Aug 4.1 02:56:32 12° W 03:01:46 32° NNW 03:08:04 10° NNE visible
05 Aug 4.9 04:50:00 10° NW 04:54:52 19° N 05:00:04 10° NE visible
06 Aug 2.7 00:22:14 50° ESE 00:22:17 50° ESE 00:28:51 10° NE visible
06 Aug 3.6 02:09:23 22° W 02:13:08 43° NW 02:19:51 10° NNE visible
06 Aug 4.9 04:00:50 10° WNW 04:05:52 21° N 04:11:12 10° NE visible
06 Aug 3.4 23:35:01 30° ESE 23:35:01 30° ESE 23:40:13 10° NE visible
07 Aug 2.9 01:22:08 37° WSW 01:24:41 62° NW 01:31:40 10° NE visible
07 Aug 4.6 03:11:35 10° WNW 03:16:55 24° NNW 03:22:38 10° NNE visible
07 Aug 5.1 05:05:13 10° NW 05:10:18 20° N 05:15:45 10° NE visible
07 Aug 4.0 22:47:41 17° E 22:47:41 17° E 22:51:00 10° ENE visible
08 Aug 2.4 00:34:49 54° SW 00:36:26 88° SE 00:43:26 10° NE visible
08 Aug 4.3 02:22:24 10° W 02:28:05 30° NNW 02:34:16 10° NNE visible
08 Aug 5.0 04:16:23 10° NW 04:21:16 19° N 04:26:28 10° NE visible
08 Aug 2.6 23:47:20 50° SSE 23:48:24 56° ESE 23:55:06 10° NE visible
09 Aug 3.8 01:34:27 15° W 01:39:25 40° NW 01:46:02 10° NNE visible
09 Aug 5.0 03:27:16 10° NW 03:32:14 20° N 03:37:31 10° NE visible
09 Aug 5.1 05:20:02 10° NNW 05:25:39 24° NNE 05:31:45 10° ENE visible
09 Aug 3.1 22:59:39 32° SE 23:00:33 34° ESE 23:06:33 10° NE visible
10 Aug 3.1 00:46:45 22° WSW 00:50:55 56° NW 00:57:51 10° NE visible
10 Aug 4.8 02:38:02 10° WNW 02:43:17 23° NNW 02:48:53 10° NNE visible
10 Aug 5.1 04:31:31 10° NW 04:36:41 21° N 04:42:14 10° ENE visible
10 Aug 3.7 22:11:39 19° ESE 22:12:50 20° ESE 22:17:32 10° ENE visible
10 Aug 2.5 23:58:42 25° SW 00:02:37 84° NW 00:09:38 10° NE visible
11 Aug 4.5 01:48:48 10° W 01:54:25 28° NNW 02:00:29 10° NNE visible
11 Aug 5.1 03:42:45 10° NW 03:47:39 19° N 03:52:53 10° NE visible
11 Aug 4.9 05:34:31 10° NNW 05:40:52 30° NNE 05:47:45 10° E visible
11 Aug 4.2 21:24:25 10° ESE 21:25:14 10° ESE 21:26:32 10° E visible
11 Aug 2.5 23:09:58 19° SSW 23:14:32 63° ESE 23:21:20 10° NE visible
